Date String (YYYY-MM-DD hh:mm:ss) UTC,Instrument flags,Ambient pressure (hPa),Sample flow (lpm),Bypass flow (lpm),Sample temperature (°C),Ambient temperature (°C),ASC tube jacket temperature (°C),LED temperature (°C),Box temperature (°C),Sample RH (%),Span deviation,Mass concentration (μg/m³),Mass concentration (μg/m³),Mass concentration (μg/m³)
DateTimeUTC,F1_M11,P_M11,Q1_M11,Q2_M11,T1_M11,T2_M11,T3_M11,T4_M11,T5_M11,U1_M11,ZSPAN_M11,X0_M11,X2_M11,X1_M11
2022-04-04 12:00:00,,0820.9,5.00,0.00,22.8,22.0,00.0,31.7,24.6,13.8,0000.0,0016.77,0006.15,0004.30
2022-04-04 12:01:00,,0820.9,5.00,0.00,22.8,22.0,00.0,31.7,24.6,13.8,0000.0,0017.14,0006.14,0004.31
2022-04-04 12:02:00,,0820.9,5.00,0.00,22.8,22.0,00.0,31.7,24.6,13.9,0000.0,0017.12,0006.16,0004.33
2022-04-04 12:03:00,,0820.9,5.00,0.00,22.8,22.0,00.0,31.7,24.6,13.8,0000.0,0017.63,0006.22,0004.32
2022-04-04 12:04:00,,0820.8,5.00,0.00,22.8,22.0,00.0,31.7,24.6,13.9,0000.0,0018.21,0006.18,0004.32
2022-04-04 12:05:00,,0820.8,4.99,0.00,22.7,22.0,00.0,31.7,24.6,13.9,0000.0,0018.33,0006.23,0004.31
2022-04-04 12:06:00,,0820.8,5.00,0.00,22.7,22.0,00.0,31.7,24.6,13.9,0000.0,0018.54,0006.27,0004.32
2022-04-04 12:07:00,,0820.8,4.99,0.00,22.7,22.0,00.0,31.7,24.5,13.9,0000.0,0018.75,0006.30,0004.31
2022-04-04 12:08:00,,0820.8,5.01,0.00,22.7,22.0,00.0,31.7,24.6,13.8,0000.0,0018.81,0006.33,0004.29
2022-04-04 12:09:00,,0820.7,5.00,0.00,22.7,22.0,00.0,31.7,24.5,13.7,0000.0,0019.28,0006.33,0004.28
2022-04-04 12:10:00,,0820.7,5.00,0.00,22.7,22.0,00.0,31.7,24.6,13.7,0000.0,0018.95,0006.28,0004.26
2022-04-04 12:11:00,,0820.7,5.00,0.00,22.7,22.0,00.0,31.7,24.6,13.6,0000.0,0018.20,0006.21,0004.22
2022-04-04 12:12:00,,0820.7,4.99,0.00,22.7,21.9,00.0,31.7,24.5,13.6,0000.0,0016.79,0006.15,0004.18
2022-04-04 12:13:00,,0820.8,4.99,0.00,22.7,21.9,00.0,31.7,24.5,13.7,0000.0,0016.72,0006.14,0004.16
2022-04-04 12:14:00,,0820.8,5.01,0.00,22.7,21.9,00.0,31.7,24.5,13.7,0000.0,0016.43,0006.12,0004.15
2022-04-04 12:15:00,,0820.8,5.00,0.00,22.7,21.9,00.0,31.7,24.5,13.8,0000.0,0015.48,0006.13,0004.15
2022-04-04 12:16:00,,0820.9,5.00,0.00,22.7,21.9,00.0,31.7,24.5,13.8,0000.0,0015.15,0006.09,0004.13
2022-04-04 12:17:00,,0820.9,5.00,0.00,22.7,21.9,00.0,31.7,24.5,13.8,0000.0,0015.07,0005.99,0004.09
2022-04-04 12:18:00,,0820.9,5.00,0.00,22.7,21.9,00.0,31.7,24.5,13.7,0000.0,0014.82,0005.96,0004.08
2022-04-04 12:19:00,,0820.9,5.00,0.00,22.7,21.9,00.0,31.7,24.5,13.6,0000.0,0015.57,0005.95,0004.07
2022-04-04 12:20:00,,0820.9,5.00,0.00,22.7,21.9,00.0,31.7,24.5,13.7,0000.0,0015.27,0006.01,0004.06
2022-04-04 12:21:00,,0820.9,5.00,0.00,22.7,21.8,00.0,31.7,24.4,13.7,0001.7,0014.97,0006.04,0004.07
2022-04-04 12:22:00,,0820.9,5.00,0.00,22.7,21.8,00.0,31.7,24.4,13.7,0000.0,0015.57,0006.07,0004.07
2022-04-04 12:23:00,,0820.9,5.00,0.00,22.7,21.9,00.0,31.7,24.4,13.7,0000.0,0016.27,0006.14,0004.09
2022-04-04 12:24:00,,0820.9,5.01,0.00,22.7,21.8,00.0,31.7,24.4,13.6,0000.0,0016.79,0006.10,0004.09
2022-04-04 12:25:00,,0820.9,5.00,0.00,22.7,21.8,00.0,31.7,24.5,13.6,0000.0,0017.33,0006.12,0004.08
2022-04-04 12:26:00,,0820.9,5.01,0.00,22.7,21.9,00.0,31.7,24.4,13.6,0000.0,0017.86,0006.13,0004.07
2022-04-04 12:27:00,,0820.9,5.00,0.00,22.7,21.9,00.0,31.7,24.5,13.6,0000.0,0017.58,0006.12,0004.07
2022-04-04 12:28:00,,0820.9,5.01,0.00,22.7,21.9,00.0,31.7,24.5,13.6,0000.0,0017.75,0006.20,0004.08
2022-04-04 12:29:00,,0820.9,4.99,0.00,22.7,21.9,00.0,31.7,24.4,13.6,0000.0,0018.23,0006.22,0004.08
2022-04-04 12:30:00,,0820.8,5.00,0.00,22.7,21.9,00.0,31.7,24.4,13.6,0000.0,0017.54,0006.22,0004.09
2022-04-04 12:31:00,,0820.8,5.00,0.00,22.6,21.9,00.0,31.7,24.4,13.6,0000.0,0017.56,0006.20,0004.10
2022-04-04 12:32:00,,0820.9,4.99,0.00,22.6,21.8,00.0,31.7,24.4,13.6,0000.0,0017.86,0006.15,0004.11
2022-04-04 12:33:00,,0820.8,5.00,0.00,22.6,21.8,00.0,31.6,24.4,13.6,0000.0,0017.23,0006.09,0004.10
2022-04-04 12:34:00,,0820.9,5.02,0.00,22.6,21.8,00.0,31.6,24.4,13.6,0000.0,0016.62,0006.06,0004.11
2022-04-04 12:35:00,,0820.9,5.00,0.00,22.6,21.8,00.0,31.6,24.4,13.6,0000.0,0016.08,0006.06,0004.11
2022-04-04 12:36:00,,0820.8,5.00,0.00,22.6,21.8,00.0,31.6,24.4,13.6,0000.0,0016.15,0006.09,0004.11
2022-04-04 12:37:00,,0820.9,5.00,0.00,22.6,21.8,00.0,31.6,24.4,13.6,0000.0,0015.82,0006.06,0004.12
2022-04-04 12:38:00,,0820.9,5.00,0.00,22.6,21.8,00.0,31.6,24.4,13.6,0000.0,0015.78,0006.09,0004.12
2022-04-04 12:39:00,,0821.0,4.99,0.00,22.6,21.8,00.0,31.6,24.4,13.6,0000.0,0015.73,0006.04,0004.11
2022-04-04 12:40:00,,0821.0,5.00,0.00,22.6,21.8,00.0,31.6,24.4,13.6,0000.0,0015.60,0006.08,0004.13
2022-04-04 12:41:00,,0821.0,5.00,0.00,22.6,21.8,00.0,31.6,24.4,13.6,0000.0,0015.73,0006.06,0004.12
2022-04-04 12:42:00,,0821.0,5.00,0.00,22.6,21.8,00.0,31.6,24.3,13.7,0000.0,0016.31,0006.02,0004.11
2022-04-04 12:43:00,,0821.0,5.00,0.00,22.6,21.8,00.0,31.6,24.4,13.7,0000.0,0016.01,0006.05,0004.11
2022-04-04 12:44:00,,0821.0,5.00,0.00,22.6,21.8,00.0,31.6,24.4,13.6,0000.0,0016.49,0006.09,0004.11
2022-04-04 12:45:00,,0821.0,5.00,0.00,22.6,21.8,00.0,31.6,24.4,13.6,0000.0,0016.59,0006.03,0004.09
2022-04-04 12:46:00,,0821.0,5.01,0.00,22.6,21.8,00.0,31.6,24.4,13.6,0000.0,0016.95,0006.02,0004.10
2022-04-04 12:47:00,,0821.0,5.00,0.00,22.6,21.8,00.0,31.6,24.4,13.6,0000.0,0016.70,0005.97,0004.08
2022-04-04 12:48:00,,0821.0,5.00,0.00,22.6,21.8,00.0,31.6,24.4,13.6,0000.0,0017.21,0006.00,0004.07
2022-04-04 12:49:00,,0820.9,5.01,0.00,22.6,21.8,00.0,31.6,24.4,13.6,0000.0,0017.54,0006.04,0004.07
2022-04-04 12:50:00,,0821.0,4.99,0.00,22.6,21.8,00.0,31.6,24.4,13.7,0000.0,0017.04,0006.05,0004.08
2022-04-04 12:51:00,,0821.0,5.00,0.00,22.6,21.8,00.0,31.6,24.4,13.7,0000.0,0016.64,0005.99,0004.06
2022-04-04 12:52:00,,0821.0,5.00,0.00,22.6,21.8,00.0,31.6,24.4,13.7,0000.0,0016.52,0006.00,0004.06
2022-04-04 12:53:00,,0821.0,5.00,0.00,22.6,21.8,00.0,31.6,24.4,13.7,0000.0,0015.85,0006.03,0004.06
2022-04-04 12:54:00,,0821.0,5.00,0.00,22.6,21.7,00.0,31.6,24.3,13.7,0000.0,0015.32,0005.99,0004.04
2022-04-04 12:55:00,,0821.0,5.00,0.00,22.5,21.7,00.0,31.6,24.3,13.7,0000.0,0015.41,0006.03,0004.04
2022-04-04 12:56:00,,0821.0,5.00,0.00,22.5,21.7,00.0,31.6,24.3,13.8,0000.0,0015.67,0006.09,0004.05
2022-04-04 12:57:00,,0821.1,5.00,0.00,22.5,21.7,00.0,31.6,24.3,13.8,0000.0,0015.35,0006.13,0004.05
2022-04-04 12:58:00,,0821.1,5.01,0.00,22.5,21.7,00.0,31.6,24.3,13.8,0000.0,0015.42,0006.20,0004.06
2022-04-04 12:59:00,,0821.1,5.00,0.00,22.5,21.7,00.0,31.6,24.3,13.8,0000.0,0014.99,0006.19,0004.08
